This is the latest recevied weather packets stored in our database for station/object W3AJR. If no packets are shown the sender has not sent any weather packets the latest 10 day(s).
| Time | Temp. | Humidity | Pressure | Rain* | Wind** | Luminosity | Snow |
|---|---|---|---|---|---|---|---|
| 1778161718 | 12.22° C | 73% | 1012.4 hPa | 0 mm | - | 109 W/m² | - |
| 1778161414 | 12.22° C | 73% | 1012.6 hPa | 0 mm | - | 89 W/m² | - |
| 1778161110 | 12.22° C | 74% | 1012.7 hPa | 0 mm | - | 98 W/m² | - |
| 1778160805 | 12.22° C | 75% | 1012.6 hPa | 0 mm | - | 78 W/m² | - |
| 1778160505 | 12.22° C | 75% | 1012.4 hPa | 0 mm | - | 75 W/m² | - |
| 1778160200 | 12.22° C | 76% | 1012.4 hPa | 0 mm | - | 63 W/m² | - |
| 1778159898 | 12.22° C | 75% | 1012.6 hPa | 0 mm | - | 77 W/m² | - |
| 1778159594 | 12.22° C | 78% | 1012.6 hPa | 0 mm | - | 59 W/m² | - |
| 1778159291 | 12.22° C | 78% | 1012.2 hPa | 0 mm | - | 85 W/m² | - |
| 1778158989 | 12.22° C | 79% | 1012.4 hPa | 0 mm | - | 77 W/m² | - |
| 1778158687 | 12.22° C | 79% | 1012.6 hPa | 0 mm | - | 62 W/m² | - |
| 1778158384 | 12.22° C | 81% | 1012.6 hPa | 0 mm | - | 48 W/m² | - |
| 1778158081 | 12.22° C | 81% | 1012.6 hPa | 0 mm | - | 52 W/m² | - |
| 1778157778 | 12.22° C | 82% | 1012.3 hPa | 0 mm | - | 60 W/m² | - |
| 1778157476 | 12.22° C | 83% | 1012.6 hPa | 0 mm | - | 69 W/m² | - |
| 1778157173 | 12.22° C | 83% | 1012.4 hPa | 0 mm | - | 65 W/m² | - |
| 1778156869 | 12.22° C | 85% | 1012.1 hPa | 0 mm | - | 63 W/m² | - |
| 1778156564 | 12.22° C | 86% | 1011.9 hPa | 0 mm | - | 69 W/m² | - |
| 1778156261 | 12.22° C | 86% | 1012.2 hPa | 0 mm | - | 64 W/m² | - |
| 1778155956 | 12.22° C | 86% | 1011.9 hPa | 0 mm | - | 66 W/m² | - |
| 1778155653 | 12.22° C | 87% | 1011.9 hPa | 0 mm | - | 54 W/m² | - |
| 1778155350 | 12.22° C | 88% | 1012.1 hPa | 0 mm | - | 51 W/m² | - |
| 1778155046 | 12.22° C | 89% | 1011.9 hPa | 0 mm | - | 62 W/m² | - |
| 1778154742 | 12.22° C | 90% | 1012.1 hPa | 0 mm | - | 61 W/m² | - |
| 1778154438 | 12.22° C | 90% | 1011.8 hPa | 0 mm | - | 65 W/m² | - |
* Rain latest hour (hover to see other rain measurements)
** Current wind speed in m/s (hover to see current wind gust speed)